| time (UTC) | temp F | wind direction | speed MPH | gust MPH | rain 1hr in | rain 24hr in | rain mn in | humidity % | barometer mb |
| 20260510220205 | 83 | 333 | 4.0 | 8.0 | 0.00 | 0.00 | 0.00 | 66 | 1015.1 |
| 20260510215703 | 83 | 324 | 4.0 | 7.0 | 0.00 | 0.00 | 0.00 | 65 | 1015.1 |
| 20260510215201 | 83 | 13 | 4.0 | 7.0 | 0.00 | 0.00 | 0.00 | 64 | 1015.1 |
| 20260510214658 | 84 | 10 | 5.0 | 7.0 | 0.00 | 0.00 | 0.00 | 62 | 1015.1 |
| 20260510214154 | 84 | 207 | 4.0 | 8.0 | 0.00 | 0.00 | 0.00 | 62 | 1015.0 |
| 20260510213651 | 84 | 42 | 7.0 | 10.0 | 0.00 | 0.00 | 0.00 | 63 | 1015.3 |
| 20260510213148 | 84 | 239 | 5.0 | 7.0 | 0.00 | 0.00 | 0.00 | 64 | 1015.2 |
| 20260510212644 | 84 | 17 | 5.0 | 10.0 | 0.00 | 0.00 | 0.00 | 63 | 1015.1 |
| 20260510212142 | 86 | 0 | 6.0 | 10.0 | 0.00 | 0.00 | 0.00 | 61 | 1015.0 |
| 20260510211639 | 86 | 352 | 5.0 | 8.0 | 0.00 | 0.00 | 0.00 | 62 | 1014.9 |
| 20260510211138 | 85 | 273 | 5.0 | 5.0 | 0.00 | 0.00 | 0.00 | 65 | 1015.0 |
| 20260510210635 | 85 | 11 | 5.0 | 8.0 | 0.00 | 0.00 | 0.00 | 65 | 1015.1 |
| 20260510210130 | 85 | 281 | 4.0 | 7.0 | 0.00 | 0.00 | 0.00 | 65 | 1015.0 |
| 20260510205630 | 85 | 295 | 4.0 | 5.0 | 0.00 | 0.00 | 0.00 | 65 | 1015.2 |
| 20260510205126 | 85 | 34 | 7.0 | 10.0 | 0.00 | 0.00 | 0.00 | 63 | 1014.9 |
| 20260510204622 | 86 | 306 | 7.0 | 8.0 | 0.00 | 0.00 | 0.00 | 63 | 1015.0 |
| 20260510204119 | 86 | 358 | 5.0 | 8.0 | 0.00 | 0.00 | 0.00 | 62 | 1015.0 |
| 20260510203615 | 86 | 348 | 4.0 | 7.0 | 0.00 | 0.00 | 0.00 | 64 | 1014.9 |
| 20260510203113 | 86 | 4 | 5.0 | 8.0 | 0.00 | 0.00 | 0.00 | 62 | 1015.1 |
| 20260510202612 | 86 | 358 | 7.0 | 10.0 | 0.00 | 0.00 | 0.00 | 63 | 1015.1 |
| 20260510202108 | 86 | 1 | 6.0 | 8.0 | 0.00 | 0.00 | 0.00 | 65 | 1014.9 |
| 20260510201606 | 87 | 7 | 7.0 | 8.0 | 0.00 | 0.00 | 0.00 | 62 | 1015.1 |
| 20260510201102 | 87 | 324 | 5.0 | 10.0 | 0.00 | 0.00 | 0.00 | 61 | 1015.0 |
| 20260510200558 | 88 | 298 | 4.0 | 8.0 | 0.00 | 0.00 | 0.00 | 62 | 1015.3 |
| 20260510200056 | 88 | 234 | 2.0 | 5.0 | 0.00 | 0.00 | 0.00 | 59 | 1015.2 |
| 20260510195554 | 88 | 202 | 1.0 | 3.0 | 0.00 | 0.00 | 0.00 | 57 | 1015.0 |
| 20260510195049 | 88 | 18 | 5.0 | 7.0 | 0.00 | 0.00 | 0.00 | 61 | 1015.0 |
| 20260510194544 | 88 | 202 | 2.0 | 5.0 | 0.00 | 0.00 | 0.00 | 56 | 1015.1 |
| 20260510194042 | 88 | 228 | 3.0 | 8.0 | 0.00 | 0.00 | 0.00 | 55 | 1015.3 |
| 20260510193541 | 87 | 203 | 2.0 | 4.0 | 0.00 | 0.00 | 0.00 | 60 | 1015.3 |
| 20260510193037 | 88 | 338 | 5.0 | 7.0 | 0.00 | 0.00 | 0.00 | 62 | 1015.2 |
| 20260510192537 | 87 | 268 | 3.0 | 5.0 | 0.00 | 0.00 | 0.00 | 61 | 1015.3 |
| 20260510192034 | 87 | 199 | 1.0 | 5.0 | 0.00 | 0.00 | 0.00 | 62 | 1015.3 |
| 20260510191530 | 87 | 214 | 2.0 | 4.0 | 0.00 | 0.00 | 0.00 | 62 | 1015.5 |
| 20260510191027 | 88 | 306 | 4.0 | 7.0 | 0.00 | 0.00 | 0.00 | 60 | 1015.4 |
| 20260510190524 | 87 | 189 | 3.0 | 4.0 | 0.00 | 0.00 | 0.00 | 58 | 1015.4 |
| 20260510190022 | 88 | 31 | 4.0 | 5.0 | 0.00 | 0.00 | 0.00 | 61 | 1015.6 |
| 20260510185518 | 88 | 201 | 2.0 | 4.0 | 0.00 | 0.00 | 0.00 | 59 | 1015.5 |
| 20260510185016 | 86 | 200 | 2.0 | 5.0 | 0.00 | 0.00 | 0.00 | 64 | 1015.5 |
| 20260510184513 | 86 | 238 | 2.0 | 4.0 | 0.00 | 0.00 | 0.00 | 61 | 1015.8 |
| 20260510184008 | 86 | 212 | 2.0 | 5.0 | 0.00 | 0.00 | 0.00 | 61 | 1015.8 |
| 20260510183504 | 87 | 249 | 3.0 | 5.0 | 0.00 | 0.00 | 0.00 | 62 | 1015.5 |
| 20260510182959 | 89 | 330 | 3.0 | 5.0 | 0.00 | 0.00 | 0.00 | 58 | 1015.7 |
| 20260510182456 | 87 | 189 | 5.0 | 5.0 | 0.00 | 0.00 | 0.00 | 60 | 1015.8 |
| 20260510181951 | 87 | 203 | 2.0 | 4.0 | 0.00 | 0.00 | 0.00 | 56 | 1016.0 |
| 20260510181450 | 87 | 210 | 0.0 | 3.0 | 0.00 | 0.00 | 0.00 | 60 | 1016.1 |
| 20260510180945 | 87 | 280 | 4.0 | 7.0 | 0.00 | 0.00 | 0.00 | 63 | 1015.8 |
| 20260510180443 | 86 | 202 | 3.0 | 7.0 | 0.00 | 0.00 | 0.00 | 60 | 1015.9 |
| 20260510175939 | 85 | 222 | 2.0 | 4.0 | 0.00 | 0.00 | 0.00 | 63 | 1016.0 |
| 20260510175435 | 85 | 252 | 2.0 | 4.0 | 0.00 | 0.00 | 0.00 | 64 | 1016.0 |
| 20260510174931 | 86 | 205 | 1.0 | 5.0 | 0.00 | 0.00 | 0.00 | 63 | 1016.0 |
| 20260510174429 | 85 | 257 | 3.0 | 4.0 | 0.00 | 0.00 | 0.00 | 66 | 1016.0 |
| 20260510173925 | 84 | 346 | 3.0 | 4.0 | 0.00 | 0.00 | 0.00 | 66 | 1016.2 |
| 20260510173421 | 85 | 236 | 3.0 | 4.0 | 0.00 | 0.00 | 0.00 | 65 | 1016.1 |
| 20260510172918 | 87 | 200 | 2.0 | 7.0 | 0.00 | 0.00 | 0.00 | 61 | 1016.3 |
| 20260510172414 | 86 | 191 | 5.0 | 5.0 | 0.00 | 0.00 | 0.00 | 61 | 1016.2 |
| 20260510171910 | 86 | 196 | 4.0 | 8.0 | 0.00 | 0.00 | 0.00 | 58 | 1016.3 |
| 20260510171408 | 86 | 195 | 5.0 | 7.0 | 0.00 | 0.00 | 0.00 | 58 | 1016.3 |
| 20260510170904 | 85 | 198 | 1.0 | 3.0 | 0.00 | 0.00 | 0.00 | 61 | 1016.4 |
| 20260510170401 | 86 | 204 | 2.0 | 4.0 | 0.00 | 0.00 | 0.00 | 60 | 1016.2 |
| 20260510165856 | 86 | 202 | 0.0 | 4.0 | 0.00 | 0.00 | 0.00 | 58 | 1016.5 |
| 20260510165353 | 86 | 201 | 2.0 | 3.0 | 0.00 | 0.00 | 0.00 | 58 | 1016.5 |
| 20260510164850 | 86 | 201 | 1.0 | 3.0 | 0.00 | 0.00 | 0.00 | 59 | 1016.5 |
| 20260510164347 | 85 | 200 | 1.0 | 3.0 | 0.00 | 0.00 | 0.00 | 62 | 1016.5 |
| 20260510163846 | 84 | 201 | 2.0 | 4.0 | 0.00 | 0.00 | 0.00 | 63 | 1016.6 |
| 20260510163344 | 84 | 199 | 2.0 | 3.0 | 0.00 | 0.00 | 0.00 | 64 | 1016.4 |
| 20260510162843 | 84 | 201 | 2.0 | 5.0 | 0.00 | 0.00 | 0.00 | 61 | 1016.6 |
| 20260510162341 | 85 | 200 | 1.0 | 3.0 | 0.00 | 0.00 | 0.00 | 62 | 1016.7 |
| 20260510161836 | 84 | 213 | 0.0 | 1.0 | 0.00 | 0.00 | 0.00 | 68 | 1016.7 |
| 20260510161333 | 82 | 227 | 0.0 | 1.0 | 0.00 | 0.00 | 0.00 | 67 | 1016.7 |
| 20260510160830 | 82 | 240 | 2.0 | 4.0 | 0.00 | 0.00 | 0.00 | 67 | 1016.6 |
| 20260510160327 | 82 | 237 | 2.0 | 3.0 | 0.00 | 0.00 | 0.00 | 68 | 1016.4 |
| 20260510155826 | 82 | 246 | 2.0 | 3.0 | 0.00 | 0.00 | 0.00 | 70 | 1016.5 |
| 20260510155324 | 82 | 209 | 0.0 | 4.0 | 0.00 | 0.00 | 0.00 | 69 | 1016.6 |
| 20260510154819 | 83 | 262 | 2.0 | 3.0 | 0.00 | 0.00 | 0.00 | 70 | 1016.7 |
| 20260510154310 | 82 | 212 | 1.0 | 3.0 | 0.00 | 0.00 | 0.00 | 70 | 1016.6 |
| 20260510153809 | 82 | 217 | 1.0 | 3.0 | 0.00 | 0.00 | 0.00 | 71 | 1016.6 |
| 20260510153306 | 81 | 198 | 0.0 | 1.0 | 0.00 | 0.00 | 0.00 | 72 | 1016.8 |
| 20260510152802 | 80 | 198 | 1.0 | 1.0 | 0.00 | 0.00 | 0.00 | 72 | 1016.8 |
| 20260510152259 | 80 | 197 | 3.0 | 4.0 | 0.00 | 0.00 | 0.00 | 70 | 1016.7 |
| 20260510151756 | 79 | 204 | 3.0 | 5.0 | 0.00 | 0.00 | 0.00 | 71 | 1016.7 |
| 20260510151254 | 79 | 200 | 4.0 | 5.0 | 0.00 | 0.00 | 0.00 | 72 | 1016.6 |
| 20260510150749 | 78 | 185 | 5.0 | 5.0 | 0.00 | 0.00 | 0.00 | 76 | 1016.6 |
| 20260510150246 | 77 | 197 | 2.0 | 4.0 | 0.00 | 0.00 | 0.00 | 75 | 1016.8 |
| 20260510145741 | 77 | 194 | 1.0 | 3.0 | 0.00 | 0.00 | 0.00 | 76 | 1016.8 |
| 20260510145238 | 77 | 199 | 1.0 | 3.0 | 0.00 | 0.00 | 0.00 | 78 | 1017.1 |
| 20260510144734 | 77 | 200 | 1.0 | 3.0 | 0.00 | 0.00 | 0.00 | 79 | 1017.0 |
| 20260510144232 | 78 | 210 | 0.0 | 1.0 | 0.00 | 0.00 | 0.00 | 78 | 1017.1 |
| 20260510143726 | 77 | 214 | 1.0 | 1.0 | 0.00 | 0.00 | 0.00 | 81 | 1016.9 |
| 20260510143223 | 78 | 193 | 0.0 | 5.0 | 0.00 | 0.00 | 0.00 | 77 | 1017.0 |
| 20260510142719 | 77 | 209 | 0.0 | 0.0 | 0.00 | 0.00 | 0.00 | 82 | 1016.9 |
| 20260510142215 | 76 | 196 | 0.0 | 1.0 | 0.00 | 0.00 | 0.00 | 80 | 1016.8 |
| 20260510141713 | 75 | 229 | 1.0 | 1.0 | 0.00 | 0.00 | 0.00 | 85 | 1016.8 |
| 20260510141212 | 74 | 199 | 1.0 | 4.0 | 0.00 | 0.00 | 0.00 | 84 | 1016.9 |
| 20260510140708 | 74 | 223 | 0.0 | 1.0 | 0.00 | 0.00 | 0.00 | 90 | 1016.7 |
| 20260510140207 | 73 | 229 | 0.0 | 1.0 | 0.00 | 0.00 | 0.00 | 91 | 1016.6 |
| 20260510135702 | 72 | 201 | 0.0 | 1.0 | 0.00 | 0.00 | 0.00 | 91 | 1016.5 |
| 20260510135158 | 72 | 194 | 3.0 | 4.0 | 0.00 | 0.00 | 0.00 | 92 | 1016.4 |
| 20260510134656 | 71 | 196 | 4.0 | 4.0 | 0.00 | 0.00 | 0.00 | 94 | 1016.6 |
| 20260510134153 | 71 | 204 | 0.0 | 0.0 | 0.00 | 0.00 | 0.00 | 96 | 1016.4 |
| 20260510133649 | 70 | 187 | 2.0 | 3.0 | 0.00 | 0.00 | 0.00 | 97 | 1016.4 |
| 20260510133144 | 70 | 200 | 0.0 | 5.0 | 0.00 | 0.00 | 0.00 | 97 | 1016.4 |
| 20260510132641 | 70 | 206 | 0.0 | 0.0 | 0.00 | 0.00 | 0.00 | 98 | 1016.4 |
| 20260510132138 | 70 | 206 | 0.0 | 0.0 | 0.00 | 0.00 | 0.00 | 98 | 1016.5 |
| 20260510131636 | 69 | 197 | 0.0 | 1.0 | 0.00 | 0.00 | 0.00 | 98 | 1016.7 |
| 20260510131133 | 68 | 198 | 0.0 | 4.0 | 0.00 | 0.00 | 0.00 | 98 | 1016.6 |
| 20260510130629 | 68 | 199 | 1.0 | 4.0 | 0.00 | 0.00 | 0.00 | 98 | 1016.5 |
| 20260510130127 | 68 | 196 | 1.0 | 4.0 | 0.00 | 0.00 | 0.00 | 99 | 1016.5 |
| 20260510125623 | 67 | 202 | 0.0 | 1.0 | 0.00 | 0.00 | 0.00 | 99 | 1016.4 |
| 20260510125119 | 67 | 199 | 2.0 | 3.0 | 0.00 | 0.00 | 0.00 | 99 | 1016.2 |
| 20260510124616 | 67 | 197 | 0.0 | 4.0 | 0.00 | 0.00 | 0.00 | 98 | 1016.1 |
| 20260510124113 | 67 | 196 | 0.0 | 0.0 | 0.00 | 0.00 | 0.00 | 99 | 1016.3 |
| 20260510123608 | 67 | 197 | 0.0 | 0.0 | 0.00 | 0.00 | 0.00 | 99 | 1016.2 |
| 20260510123105 | 66 | 197 | 0.0 | 0.0 | 0.00 | 0.00 | 0.00 | 99 | 1015.9 |
| 20260510122601 | 66 | 196 | 0.0 | 1.0 | 0.00 | 0.00 | 0.00 | 99 | 1016.1 |
| 20260510122057 | 66 | 196 | 0.0 | 3.0 | 0.00 | 0.00 | 0.00 | 98 | 1015.8 |
| 20260510121554 | 66 | 197 | 1.0 | 3.0 | 0.00 | 0.00 | 0.00 | 99 | 1015.7 |
| 20260510121051 | 65 | 198 | 0.0 | 1.0 | 0.00 | 0.00 | 0.00 | 98 | 1015.8 |
| 20260510120550 | 65 | 197 | 0.0 | 3.0 | 0.00 | 0.00 | 0.00 | 98 | 1015.6 |
| 20260510120050 | 65 | 201 | 0.0 | 1.0 | 0.00 | 0.00 | 0.00 | 98 | 1015.8 |
| 20260510115547 | 65 | 201 | 0.0 | 0.0 | 0.00 | 0.00 | 0.00 | 98 | 1015.5 |
| 20260510115044 | 65 | 201 | 0.0 | 1.0 | 0.00 | 0.00 | 0.00 | 98 | 1015.5 |
| 20260510114540 | 65 | 200 | 0.0 | 0.0 | 0.00 | 0.00 | 0.00 | 98 | 1015.6 |
| 20260510114036 | 65 | 200 | 1.0 | 1.0 | 0.00 | 0.00 | 0.00 | 98 | 1015.8 |
| 20260510113531 | 64 | 201 | 1.0 | 1.0 | 0.00 | 0.00 | 0.00 | 98 | 1015.6 |
| 20260510113029 | 64 | 201 | 0.0 | 0.0 | 0.00 | 0.00 | 0.00 | 98 | 1015.4 |
| 20260510112526 | 64 | 200 | 1.0 | 3.0 | 0.00 | 0.00 | 0.00 | 98 | 1015.2 |
| 20260510112022 | 64 | 193 | 2.0 | 3.0 | 0.00 | 0.00 | 0.00 | 98 | 1015.2 |
| 20260510111519 | 64 | 199 | 1.0 | 3.0 | 0.00 | 0.00 | 0.00 | 98 | 1015.1 |
| 20260510111015 | 64 | 210 | 1.0 | 1.0 | 0.00 | 0.00 | 0.00 | 98 | 1014.9 |
| 20260510110511 | 64 | 212 | 0.0 | 0.0 | 0.00 | 0.00 | 0.00 | 98 | 1014.7 |
| 20260510110008 | 64 | 212 | 0.0 | 0.0 | 0.00 | 0.00 | 0.00 | 98 | 1014.9 |
| 20260510105502 | 64 | 211 | 0.0 | 0.0 | 0.00 | 0.00 | 0.00 | 98 | 1014.6 |
| 20260510104958 | 64 | 212 | 0.0 | 0.0 | 0.00 | 0.00 | 0.00 | 98 | 1014.9 |
| 20260510104454 | 64 | 212 | 0.0 | 0.0 | 0.00 | 0.00 | 0.00 | 98 | 1014.6 |
| 20260510103951 | 64 | 212 | 0.0 | 0.0 | 0.00 | 0.00 | 0.00 | 98 | 1014.7 |
| 20260510103448 | 65 | 212 | 0.0 | 0.0 | 0.00 | 0.00 | 0.00 | 98 | 1014.5 |
| 20260510102944 | 65 | 212 | 0.0 | 0.0 | 0.00 | 0.00 | 0.00 | 98 | 1014.4 |
| 20260510102440 | 65 | 212 | 0.0 | 0.0 | 0.00 | 0.00 | 0.00 | 98 | 1014.5 |
| 20260510101937 | 65 | 209 | 0.0 | 0.0 | 0.00 | 0.00 | 0.00 | 98 | 1014.2 |
| 20260510101434 | 65 | 193 | 0.0 | 0.0 | 0.00 | 0.00 | 0.00 | 98 | 1014.2 |
| 20260510100932 | 65 | 192 | 1.0 | 1.0 | 0.00 | 0.00 | 0.00 | 98 | 1014.0 |
| 20260510100428 | 65 | 212 | 0.0 | 3.0 | 0.00 | 0.00 | 0.00 | 98 | 1014.0 |
| 20260510095925 | 65 | 213 | 0.0 | 0.0 | 0.00 | 0.00 | 0.00 | 98 | 1014.1 |
| 20260510095420 | 65 | 213 | 0.0 | 1.0 | 0.00 | 0.00 | 0.00 | 98 | 1014.0 |
| 20260510094919 | 65 | 213 | 0.0 | 0.0 | 0.00 | 0.00 | 0.00 | 98 | 1014.2 |
| 20260510094414 | 65 | 213 | 1.0 | 1.0 | 0.00 | 0.00 | 0.00 | 98 | 1014.2 |
| 20260510093911 | 65 | 213 | 0.0 | 1.0 | 0.00 | 0.00 | 0.00 | 98 | 1014.0 |
| 20260510093406 | 65 | 215 | 1.0 | 1.0 | 0.00 | 0.00 | 0.00 | 98 | 1013.9 |
| 20260510092904 | 65 | 215 | 0.0 | 0.0 | 0.00 | 0.00 | 0.00 | 98 | 1014.0 |
| 20260510092401 | 66 | 215 | 0.0 | 0.0 | 0.00 | 0.00 | 0.00 | 98 | 1013.9 |
| 20260510091901 | 66 | 216 | 0.0 | 1.0 | 0.00 | 0.00 | 0.00 | 98 | 1013.7 |
| 20260510091358 | 65 | 199 | 0.0 | 0.0 | 0.00 | 0.00 | 0.00 | 98 | 1013.5 |
| 20260510090855 | 66 | 199 | 0.0 | 0.0 | 0.00 | 0.00 | 0.00 | 98 | 1013.4 |
| 20260510090351 | 66 | 199 | 0.0 | 0.0 | 0.00 | 0.00 | 0.00 | 98 | 1013.0 |
| 20260510085847 | 66 | 199 | 1.0 | 1.0 | 0.00 | 0.00 | 0.00 | 98 | 1013.1 |
| 20260510085342 | 66 | 199 | 0.0 | 0.0 | 0.00 | 0.00 | 0.00 | 98 | 1013.1 |
| 20260510084838 | 66 | 199 | 0.0 | 1.0 | 0.00 | 0.00 | 0.00 | 98 | 1012.9 |
| 20260510084335 | 66 | 199 | 1.0 | 1.0 | 0.00 | 0.00 | 0.00 | 98 | 1013.1 |
| 20260510083832 | 66 | 196 | 1.0 | 3.0 | 0.00 | 0.00 | 0.00 | 98 | 1012.8 |
| 20260510083329 | 66 | 192 | 3.0 | 4.0 | 0.00 | 0.00 | 0.00 | 98 | 1013.1 |
| 20260510082824 | 66 | 193 | 2.0 | 3.0 | 0.00 | 0.00 | 0.00 | 98 | 1013.1 |
| 20260510082322 | 66 | 205 | 1.0 | 1.0 | 0.00 | 0.00 | 0.00 | 98 | 1013.3 |
| 20260510081820 | 66 | 205 | 0.0 | 1.0 | 0.00 | 0.00 | 0.00 | 98 | 1013.1 |
| 20260510081316 | 66 | 205 | 0.0 | 1.0 | 0.00 | 0.00 | 0.00 | 98 | 1013.0 |
| 20260510080812 | 66 | 205 | 1.0 | 1.0 | 0.00 | 0.00 | 0.00 | 98 | 1012.8 |
| 20260510080307 | 66 | 205 | 0.0 | 1.0 | 0.00 | 0.00 | 0.00 | 98 | 1013.0 |
| 20260510075805 | 66 | 205 | 1.0 | 1.0 | 0.00 | 0.00 | 0.00 | 98 | 1012.9 |
| 20260510075305 | 66 | 206 | 0.0 | 0.0 | 0.00 | 0.00 | 0.00 | 98 | 1012.8 |
| 20260510074759 | 66 | 204 | 0.0 | 0.0 | 0.00 | 0.00 | 0.00 | 98 | 1012.7 |
| 20260510074256 | 66 | 204 | 0.0 | 0.0 | 0.00 | 0.00 | 0.00 | 98 | 1012.9 |
| 20260510073752 | 66 | 204 | 0.0 | 0.0 | 0.00 | 0.00 | 0.00 | 98 | 1012.8 |
| 20260510073248 | 67 | 204 | 0.0 | 0.0 | 0.00 | 0.00 | 0.00 | 98 | 1012.9 |
| 20260510072743 | 67 | 204 | 0.0 | 0.0 | 0.00 | 0.00 | 0.00 | 98 | 1013.0 |
| 20260510072240 | 67 | 204 | 0.0 | 0.0 | 0.00 | 0.00 | 0.00 | 98 | 1013.0 |
| 20260510071737 | 67 | 204 | 0.0 | 0.0 | 0.00 | 0.00 | 0.00 | 98 | 1013.0 |
| 20260510071233 | 67 | 204 | 0.0 | 1.0 | 0.00 | 0.00 | 0.00 | 98 | 1013.2 |
| 20260510070732 | 67 | 204 | 0.0 | 0.0 | 0.00 | 0.00 | 0.00 | 98 | 1013.0 |
| 20260510070229 | 67 | 203 | 2.0 | 4.0 | 0.00 | 0.00 | 0.00 | 98 | 1013.0 |
| 20260510065723 | 67 | 199 | 1.0 | 1.0 | 0.00 | 0.00 | 0.00 | 98 | 1013.0 |
| 20260510065220 | 67 | 199 | 1.0 | 1.0 | 0.00 | 0.00 | 0.00 | 98 | 1012.6 |
| 20260510064717 | 67 | 199 | 0.0 | 0.0 | 0.00 | 0.00 | 0.00 | 98 | 1012.9 |
| 20260510064215 | 67 | 199 | 0.0 | 0.0 | 0.00 | 0.00 | 0.00 | 98 | 1012.7 |
| 20260510063711 | 67 | 199 | 1.0 | 1.0 | 0.00 | 0.00 | 0.00 | 98 | 1012.9 |
| 20260510063207 | 67 | 199 | 1.0 | 1.0 | 0.00 | 0.00 | 0.00 | 98 | 1013.2 |
| 20260510062704 | 67 | 199 | 0.0 | 0.0 | 0.00 | 0.00 | 0.00 | 98 | 1013.3 |
| 20260510062200 | 67 | 199 | 1.0 | 1.0 | 0.00 | 0.00 | 0.00 | 98 | 1013.4 |
| 20260510061655 | 67 | 199 | 0.0 | 0.0 | 0.00 | 0.00 | 0.00 | 98 | 1013.2 |
| 20260510061153 | 67 | 199 | 0.0 | 0.0 | 0.00 | 0.00 | 0.00 | 98 | 1013.3 |
| 20260510060649 | 67 | 199 | 0.0 | 0.0 | 0.00 | 0.00 | 0.00 | 98 | 1013.4 |
| 20260510060145 | 67 | 199 | 0.0 | 0.0 | 0.00 | 0.00 | 0.00 | 98 | 1013.4 |
| 20260510055642 | 67 | 199 | 0.0 | 0.0 | 0.00 | 0.00 | 0.00 | 98 | 1013.4 |
| 20260510055140 | 67 | 199 | 0.0 | 0.0 | 0.00 | 0.00 | 0.00 | 98 | 1013.4 |
| 20260510054635 | 67 | 198 | 1.0 | 1.0 | 0.00 | 0.00 | 0.00 | 98 | 1013.1 |
| 20260510054131 | 67 | 199 | 0.0 | 1.0 | 0.00 | 0.00 | 0.00 | 98 | 1012.9 |
| 20260510053630 | 67 | 199 | 0.0 | 0.0 | 0.00 | 0.00 | 0.00 | 98 | 1012.9 |
| 20260510053127 | 67 | 199 | 0.0 | 0.0 | 0.00 | 0.00 | 0.00 | 98 | 1012.9 |
| 20260510052623 | 67 | 199 | 0.0 | 0.0 | 0.00 | 0.00 | 0.00 | 98 | 1013.2 |
| 20260510052120 | 67 | 199 | 0.0 | 1.0 | 0.00 | 0.00 | 0.00 | 98 | 1013.3 |
| 20260510051615 | 67 | 199 | 0.0 | 0.0 | 0.00 | 0.00 | 0.00 | 98 | 1013.3 |
| 20260510051112 | 67 | 199 | 1.0 | 1.0 | 0.00 | 0.00 | 0.00 | 98 | 1013.3 |
| 20260510050609 | 67 | 199 | 0.0 | 0.0 | 0.00 | 0.00 | 0.00 | 98 | 1013.4 |
| 20260510050106 | 67 | 199 | 0.0 | 0.0 | 0.00 | 0.45 | 0.45 | 98 | 1013.6 |
| 20260510045604 | 67 | 199 | 0.0 | 0.0 | 0.00 | 0.45 | 0.45 | 98 | 1013.6 |
| 20260510045059 | 67 | 199 | 0.0 | 0.0 | 0.00 | 0.45 | 0.45 | 98 | 1013.7 |
| 20260510044556 | 67 | 199 | 0.0 | 0.0 | 0.00 | 0.45 | 0.45 | 98 | 1013.7 |
| 20260510044054 | 67 | 199 | 0.0 | 0.0 | 0.00 | 0.45 | 0.45 | 98 | 1013.5 |
| 20260510043549 | 67 | 199 | 0.0 | 0.0 | 0.00 | 0.45 | 0.45 | 97 | 1013.8 |
| 20260510043045 | 67 | 199 | 0.0 | 0.0 | 0.00 | 0.45 | 0.45 | 97 | 1013.8 |
| 20260510042544 | 67 | 199 | 0.0 | 0.0 | 0.00 | 0.45 | 0.45 | 97 | 1013.9 |
| 20260510042040 | 67 | 198 | 1.0 | 1.0 | 0.00 | 0.45 | 0.45 | 97 | 1013.7 |
| 20260510041537 | 67 | 200 | 0.0 | 0.0 | 0.00 | 0.45 | 0.45 | 97 | 1014.2 |
| 20260510041034 | 67 | 200 | 0.0 | 0.0 | 0.00 | 0.45 | 0.45 | 97 | 1014.3 |
| 20260510040531 | 67 | 200 | 0.0 | 1.0 | 0.00 | 0.45 | 0.45 | 97 | 1014.2 |
| 20260510040027 | 67 | 201 | 0.0 | 0.0 | 0.00 | 0.45 | 0.45 | 97 | 1014.2 |
| 20260510035523 | 67 | 201 | 0.0 | 0.0 | 0.00 | 0.45 | 0.45 | 97 | 1014.2 |
| 20260510035023 | 67 | 201 | 0.0 | 0.0 | 0.00 | 0.45 | 0.45 | 97 | 1014.4 |
| 20260510034522 | 68 | 201 | 0.0 | 0.0 | 0.00 | 0.45 | 0.45 | 97 | 1014.0 |
| 20260510034018 | 68 | 201 | 0.0 | 0.0 | 0.00 | 0.45 | 0.45 | 97 | 1013.9 |
| 20260510033513 | 68 | 201 | 0.0 | 0.0 | 0.00 | 0.45 | 0.45 | 97 | 1013.8 |
| 20260510033012 | 68 | 200 | 0.0 | 0.0 | 0.00 | 0.45 | 0.45 | 97 | 1013.8 |
| 20260510032508 | 68 | 200 | 0.0 | 1.0 | 0.00 | 0.45 | 0.45 | 97 | 1013.7 |
| 20260510032008 | 68 | 200 | 0.0 | 1.0 | 0.00 | 0.45 | 0.45 | 97 | 1013.7 |
| 20260510031504 | 68 | 199 | 0.0 | 1.0 | 0.00 | 0.45 | 0.45 | 97 | 1013.4 |
| 20260510031000 | 68 | 199 | 1.0 | 4.0 | 0.00 | 0.45 | 0.45 | 97 | 1013.4 |
| 20260510030455 | 68 | 198 | 1.0 | 3.0 | 0.00 | 0.45 | 0.45 | 97 | 1013.4 |
| 20260510025953 | 68 | 199 | 1.0 | 3.0 | 0.00 | 0.45 | 0.45 | 97 | 1013.5 |
| 20260510025450 | 68 | 198 | 2.0 | 3.0 | 0.00 | 0.45 | 0.45 | 97 | 1013.3 |
| 20260510024948 | 68 | 199 | 0.0 | 1.0 | 0.00 | 0.45 | 0.45 | 97 | 1013.4 |
| 20260510024444 | 68 | 200 | 1.0 | 1.0 | 0.00 | 0.45 | 0.45 | 97 | 1013.5 |
| 20260510023940 | 68 | 200 | 0.0 | 1.0 | 0.00 | 0.45 | 0.45 | 97 | 1013.4 |
| 20260510023436 | 68 | 200 | 0.0 | 0.0 | 0.00 | 0.45 | 0.45 | 97 | 1013.5 |
| 20260510022933 | 68 | 200 | 0.0 | 0.0 | 0.00 | 0.45 | 0.45 | 97 | 1013.6 |
| 20260510022432 | 68 | 200 | 0.0 | 0.0 | 0.00 | 0.45 | 0.45 | 97 | 1013.5 |
| 20260510021932 | 68 | 200 | 0.0 | 0.0 | 0.07 | 0.45 | 0.45 | 97 | 1013.7 |
| 20260510021430 | 68 | 200 | 0.0 | 1.0 | 0.07 | 0.45 | 0.45 | 97 | 1013.7 |
| 20260510020926 | 68 | 200 | 0.0 | 1.0 | 0.00 | 0.44 | 0.44 | 97 | 1013.6 |
| 20260510020421 | 68 | 200 | 1.0 | 1.0 | 0.00 | 0.44 | 0.44 | 97 | 1013.7 |
| 20260510015917 | 68 | 199 | 1.0 | 1.0 | 0.00 | 0.44 | 0.44 | 97 | 1013.7 |
| 20260510015413 | 68 | 200 | 0.0 | 0.0 | 0.00 | 0.44 | 0.44 | 97 | 1013.5 |
| 20260510014908 | 68 | 200 | 0.0 | 0.0 | 0.00 | 0.44 | 0.44 | 97 | 1013.5 |
| 20260510014406 | 68 | 200 | 0.0 | 0.0 | 0.00 | 0.44 | 0.44 | 97 | 1013.7 |
| 20260510013902 | 68 | 200 | 0.0 | 0.0 | 0.00 | 0.44 | 0.44 | 97 | 1013.8 |
| 20260510013357 | 68 | 200 | 0.0 | 0.0 | 0.00 | 0.44 | 0.44 | 97 | 1014.1 |
| 20260510012852 | 68 | 199 | 1.0 | 3.0 | 0.00 | 0.44 | 0.44 | 97 | 1014.2 |
| 20260510012347 | 68 | 203 | 2.0 | 5.0 | 0.00 | 0.44 | 0.44 | 97 | 1014.0 |
| 20260510011842 | 68 | 198 | 3.0 | 3.0 | 0.00 | 0.44 | 0.44 | 97 | 1013.6 |
| 20260510011338 | 68 | 200 | 0.0 | 0.0 | 0.00 | 0.44 | 0.44 | 97 | 1013.2 |
| 20260510010834 | 68 | 222 | 0.0 | 0.0 | 0.00 | 0.44 | 0.44 | 96 | 1013.0 |
| 20260510010332 | 68 | 223 | 0.0 | 0.0 | 0.00 | 0.44 | 0.44 | 96 | 1012.9 |
| 20260510005828 | 68 | 223 | 0.0 | 0.0 | 0.00 | 0.44 | 0.44 | 96 | 1013.1 |
| 20260510005325 | 68 | 223 | 0.0 | 0.0 | 0.00 | 0.44 | 0.44 | 96 | 1013.0 |
| 20260510004822 | 68 | 223 | 0.0 | 0.0 | 0.00 | 0.44 | 0.44 | 96 | 1012.9 |
| 20260510004320 | 69 | 223 | 0.0 | 0.0 | 0.00 | 0.44 | 0.44 | 96 | 1012.8 |
| 20260510003817 | 69 | 223 | 0.0 | 0.0 | 0.00 | 0.44 | 0.44 | 96 | 1012.9 |
| 20260510003314 | 69 | 223 | 0.0 | 0.0 | 0.00 | 0.44 | 0.44 | 96 | 1012.7 |
| 20260510002813 | 69 | 223 | 0.0 | 0.0 | 0.00 | 0.44 | 0.44 | 96 | 1012.6 |
| 20260510002310 | 69 | 223 | 0.0 | 0.0 | 0.00 | 0.44 | 0.44 | 96 | 1012.7 |
| 20260510001806 | 69 | 223 | 0.0 | 0.0 | 0.00 | 0.44 | 0.44 | 96 | 1012.7 |
| 20260510001305 | 69 | 218 | 0.0 | 1.0 | 0.00 | 0.44 | 0.44 | 96 | 1012.8 |
| 20260510000800 | 69 | 205 | 0.0 | 0.0 | 0.00 | 0.44 | 0.44 | 96 | 1012.6 |
| 20260510000258 | 69 | 205 | 0.0 | 0.0 | 0.00 | 0.44 | 0.44 | 95 | 1012.5 |
| 20260509235755 | 69 | 205 | 0.0 | 0.0 | 0.00 | 0.44 | 0.44 | 95 | 1012.6 |
| 20260509235252 | 69 | 205 | 0.0 | 1.0 | 0.00 | 0.44 | 0.44 | 95 | 1012.6 |
| 20260509234747 | 70 | 204 | 1.0 | 1.0 | 0.00 | 0.44 | 0.44 | 95 | 1012.4 |
| 20260509234244 | 70 | 201 | 0.0 | 1.0 | 0.00 | 0.44 | 0.44 | 95 | 1012.3 |
| 20260509233743 | 70 | 202 | 0.0 | 1.0 | 0.00 | 0.44 | 0.44 | 95 | 1012.6 |
| 20260509233240 | 70 | 203 | 0.0 | 0.0 | 0.00 | 0.44 | 0.44 | 94 | 1012.9 |
| 20260509232736 | 70 | 203 | 0.0 | 0.0 | 0.05 | 0.44 | 0.44 | 94 | 1013.0 |
| 20260509232233 | 70 | 203 | 0.0 | 0.0 | 0.05 | 0.44 | 0.44 | 94 | 1012.8 |
| 20260509231729 | 70 | 202 | 0.0 | 0.0 | 0.00 | 0.43 | 0.43 | 94 | 1012.8 |
| 20260509231227 | 70 | 202 | 0.0 | 0.0 | 0.00 | 0.43 | 0.43 | 94 | 1012.9 |
| 20260509230724 | 70 | 202 | 0.0 | 0.0 | 0.00 | 0.43 | 0.43 | 94 | 1012.8 |
| 20260509230221 | 70 | 202 | 0.0 | 0.0 | 0.00 | 0.43 | 0.43 | 93 | 1012.6 |
| 20260509225716 | 71 | 203 | 0.0 | 0.0 | 0.00 | 0.43 | 0.43 | 93 | 1012.6 |
| 20260509225212 | 70 | 202 | 0.0 | 0.0 | 0.00 | 0.43 | 0.43 | 93 | 1012.7 |
| 20260509224708 | 70 | 203 | 0.0 | 0.0 | 0.00 | 0.43 | 0.43 | 92 | 1012.8 |
| 20260509224205 | 70 | 203 | 0.0 | 0.0 | 0.00 | 0.43 | 0.43 | 92 | 1012.9 |
| 20260509223702 | 70 | 203 | 0.0 | 0.0 | 0.07 | 0.43 | 0.43 | 92 | 1012.6 |
| 20260509223159 | 70 | 201 | 0.0 | 1.0 | 0.07 | 0.43 | 0.43 | 92 | 1012.7 |
| 20260509222656 | 70 | 205 | 0.0 | 0.0 | 0.00 | 0.42 | 0.42 | 92 | 1012.6 |
| 20260509222152 | 71 | 205 | 0.0 | 0.0 | 0.00 | 0.42 | 0.42 | 92 | 1012.6 |
| 20260509221647 | 71 | 205 | 0.0 | 1.0 | 0.00 | 0.42 | 0.42 | 92 | 1012.6 |
| 20260509221143 | 71 | 205 | 0.0 | 0.0 | 0.00 | 0.42 | 0.42 | 92 | 1012.5 |
| 20260509220640 | 71 | 205 | 0.0 | 0.0 | 0.00 | 0.42 | 0.42 | 92 | 1012.4 |